Weather History for Valley City, ND

Change the Weather History Date:

Saturday, December 15, 2012

  Actual Average (KJMS) Record (KJMS)
Temperature  
Mean Temperature 20 °F 14 °F  
Max Temperature 24 °F 23 °F 55 °F (1939)
Min Temperature 15 °F 5 °F -29 °F (1901)
Degree Days  
Heating Degree Days 46 51  
Month to date heating degree days 729  
Since 1 July heating degree days 2813  
Cooling Degree Days 0 0  
Month to date cooling degree days 0  
Year to date cooling degree days 446  
Moisture  
Dew Point 18 °F    
Average Humidity 92    
Maximum Humidity 100    
Minimum Humidity 80    
Precipitation  
Precipitation 0.00 in 0.01 in 0.36 in (2010)
Month to date precipitation 0.19  
Year to date precipitation 18.56  
Sea Level Pressure  
Sea Level Pressure 29.68 in    
Wind  
Wind Speed 12 mph (NNW)    
Max Wind Speed 21 mph    
Max Gust Speed 30 mph    
Visibility 9 miles    
Events Snow    
T = Trace of Precipitation, MM = Missing Value Source: NWS Daily Summary

Daily Weather History Graph

Daily Weather History Graph

Search for Another Location

Airport:

Trip Planner

Search our weather history database for the weather conditions in past years. The results will help you decide how hot, cold, wet, or windy it might be!

Date:

Astronomy

Dec. 15, 2012 Rise Set
Actual Time 8:11 AM CST 4:43 PM CST
Civil Twilight 7:35 AM CST 5:19 PM CST
Nautical Twilight 6:57 AM CST 5:57 PM CST
Astronomical Twilight 6:20 AM CST 6:34 PM CST
Moon 9:58 AM CST (12/15) 7:58 PM CST (12/15)
Length of Visible Light 9h 43m
Length of Day
8h 32m
Waxing Crescent, 8% of the Moon is Illuminated
Dec 15
Waxing Crescent
Dec 19
First Quarter
Dec 28
Full
Jan 4
Last Quarter
Jan 11
New

Hourly Weather History & Observations

Time (CST) Temp. Windchill Dew Point Humidity Pressure Visibility Wind Dir Wind Speed Gust Speed Precip Events Conditions
9:15 AM 17.6 °F 9.3 °F 15.8 °F 93% 29.65 in 4.0 mi NNW 5.8 mph - N/A   Clear
9:35 AM 17.6 °F 8.2 °F 17.6 °F 100% 29.65 in 4.0 mi NNW 6.9 mph - N/A   Scattered Clouds
9:55 AM 17.6 °F 8.2 °F 17.6 °F 100% 29.65 in 5.0 mi NNW 6.9 mph - N/A   Partly Cloudy
10:15 AM 17.6 °F 6.4 °F 17.6 °F 100% 29.65 in 5.0 mi NNW 9.2 mph - N/A   Clear
10:35 AM 19.4 °F 6.0 °F 17.6 °F 93% 29.66 in 7.0 mi NNW 13.8 mph - N/A   Partly Cloudy
10:55 AM 19.4 °F 7.2 °F 19.4 °F 100% 29.66 in 7.0 mi NNW 11.5 mph - N/A   Partly Cloudy
11:15 AM 21.2 °F 8.9 °F 21.2 °F 100% 29.66 in 6.0 mi NNW 12.7 mph - N/A Snow Light Snow
11:35 AM 21.2 °F 7.8 °F 21.2 °F 100% 29.66 in 5.0 mi NNW 15.0 mph - N/A Snow Light Snow
11:55 AM 21.2 °F 7.3 °F 19.4 °F 93% 29.66 in 7.0 mi NNW 16.1 mph - N/A Snow Light Snow
12:15 PM 21.2 °F 9.5 °F 19.4 °F 93% 29.66 in 7.0 mi NNW 11.5 mph - N/A   Clear
12:35 PM 23.0 °F 11.7 °F 19.4 °F 86% 29.65 in 8.0 mi NNW 11.5 mph - N/A   Clear
12:55 PM 23.0 °F 11.7 °F 19.4 °F 86% 29.64 in 10.0 mi NNW 11.5 mph - N/A   Clear
1:15 PM 24.8 °F 12.9 °F 21.2 °F 86% 29.64 in 10.0 mi NNW 13.8 mph - N/A   Clear
1:35 PM 24.8 °F 13.4 °F 19.4 °F 80% 29.63 in 10.0 mi NNW 12.7 mph - N/A   Clear
1:55 PM 24.8 °F 14.0 °F 19.4 °F 80% 29.63 in 10.0 mi NNW 11.5 mph - N/A   Clear
2:15 PM 23.0 °F 9.6 °F 19.4 °F 86% 29.63 in 10.0 mi NNW 16.1 mph - N/A   Clear
2:35 PM 23.0 °F 10.1 °F 19.4 °F 86% 29.63 in 10.0 mi NNW 15.0 mph - N/A   Clear
2:55 PM 24.8 °F 12.4 °F 19.4 °F 80% 29.63 in 10.0 mi NNW 15.0 mph - N/A   Clear
3:15 PM 24.8 °F 11.5 °F 19.4 °F 80% 29.64 in 10.0 mi NNW 17.3 mph - N/A   Clear
3:35 PM 24.8 °F 11.9 °F 19.4 °F 80% 29.64 in 10.0 mi North 16.1 mph 21.9 mph N/A   Clear
3:55 PM 24.8 °F 12.4 °F 19.4 °F 80% 29.65 in 10.0 mi NNW 15.0 mph - N/A   Clear
4:15 PM 24.8 °F 12.9 °F 19.4 °F 80% 29.66 in 10.0 mi NNW 13.8 mph - N/A   Clear
4:35 PM 23.0 °F 8.7 °F 19.4 °F 86% 29.66 in 10.0 mi NNW 18.4 mph 29.9 mph N/A   Clear
4:55 PM 23.0 °F 9.6 °F 17.6 °F 80% 29.67 in 10.0 mi NNW 16.1 mph 21.9 mph N/A   Clear
5:15 PM 21.2 °F 10.1 °F 17.6 °F 86% 29.67 in 10.0 mi North 10.4 mph - N/A   Clear
5:35 PM 19.4 °F 5.5 °F 17.6 °F 93% 29.67 in 10.0 mi NNW 15.0 mph - N/A Snow Light Snow
5:55 PM 19.4 °F 6.6 °F 15.8 °F 86% 29.68 in 10.0 mi NNW 12.7 mph 16.1 mph N/A Snow Light Snow
6:15 PM 17.6 °F 3.2 °F 15.8 °F 93% 29.68 in 10.0 mi NNW 15.0 mph - N/A   Clear
6:35 PM 17.6 °F 3.2 °F 15.8 °F 93% 29.69 in 10.0 mi NNW 15.0 mph - N/A Snow Light Snow
6:55 PM 17.6 °F 3.7 °F 15.8 °F 93% 29.70 in 10.0 mi NNW 13.8 mph 20.7 mph N/A Snow Light Snow
7:15 PM 17.6 °F 2.7 °F 15.8 °F 93% 29.70 in 10.0 mi NNW 16.1 mph 20.7 mph N/A   Clear
7:35 PM 17.6 °F 1.7 °F 15.8 °F 93% 29.71 in 10.0 mi NNW 18.4 mph - N/A   Clear
7:55 PM 15.8 °F 0.3 °F 15.8 °F 100% 29.72 in 10.0 mi NNW 16.1 mph 20.7 mph N/A   Clear
8:15 PM 15.8 °F 0.9 °F 15.8 °F 100% 29.72 in 10.0 mi NNW 15.0 mph 21.9 mph N/A   Clear
8:35 PM 15.8 °F 2.1 °F 15.8 °F 100% 29.72 in 10.0 mi NNW 12.7 mph 17.3 mph N/A   Mostly Cloudy
8:55 PM 17.6 °F 3.7 °F 17.6 °F 100% 29.73 in 10.0 mi NNW 13.8 mph 18.4 mph N/A   Overcast
9:15 PM 17.6 °F 4.3 °F 17.6 °F 100% 29.73 in 10.0 mi NNW 12.7 mph 19.6 mph N/A Snow Light Snow
9:35 PM 17.6 °F 2.7 °F 17.6 °F 100% 29.73 in 10.0 mi NNW 16.1 mph - N/A   Overcast
9:55 PM 19.4 °F 4.5 °F 19.4 °F 100% 29.72 in 10.0 mi NNW 17.3 mph - N/A Snow Light Snow
10:15 PM 19.4 °F 4.1 °F 19.4 °F 100% 29.73 in 10.0 mi NNW 18.4 mph 23.0 mph N/A Snow Light Snow
10:35 PM 19.4 °F 5.0 °F 19.4 °F 100% 29.73 in 8.0 mi NNW 16.1 mph - N/A Snow Light Snow
10:55 PM 19.4 °F 3.6 °F 19.4 °F 100% 29.73 in 8.0 mi NNW 19.6 mph - N/A   Overcast
11:15 PM 21.2 °F 6.4 °F 21.2 °F 100% 29.74 in 8.0 mi NNW 18.4 mph - N/A   Overcast
11:35 PM 21.2 °F 6.0 °F 21.2 °F 100% 29.74 in 10.0 mi NNW 19.6 mph 24.2 mph N/A Snow Light Snow
11:55 PM 21.2 °F 5.6 °F 21.2 °F 100% 29.74 in 9.0 mi NNW 20.7 mph 24.2 mph N/A Snow Light Snow